Weather History for Riverton, WY

Change the Weather History Date:

Tuesday, July 22, 2014

  Actual Average Record
Temperature  
Mean Temperature 75 °F 73 °F  
Max Temperature 93 °F 89 °F 100 °F (2007)
Min Temperature 56 °F 57 °F 49 °F (2009)
Degree Days  
Heating Degree Days 0 0  
Month to date heating degree days 4 8  
Since 1 June heating degree days 130 127  
Since 1 July heating degree days 4 8  
Cooling Degree Days 10 8  
Month to date cooling degree days 167 146  
Year to date cooling degree days 205 221  
Since 1 June cooling degree days 190 212  
Growing Degree Days 24 (Base 50)    
Moisture  
Dew Point 39 °F    
Average Humidity 35    
Maximum Humidity 57    
Minimum Humidity 12    
Precipitation  
Precipitation 0.00 in 0.03 in 0.36 in (2004)
Month to date precipitation 0.47 0.69  
Year to date precipitation 3.91 6.05  
Snow  
Snow 0.00 in - - ()
Month to date snowfall 0.0  
Since 1 June snowfall 0.0  
Since 1 July snowfall 0.0  
Snow Depth 0.00 in    
Sea Level Pressure  
Sea Level Pressure 30.09 in    
Wind  
Wind Speed 5 mph (NE)    
Max Wind Speed 14 mph    
Max Gust Speed 22 mph    
Visibility 10 miles    
Events      
T = Trace of Precipitation, MM = Missing Value Source: NWS Daily Summary

Daily Weather History Graph

Daily Weather History Graph

Search for Another Location

Airport:

Trip Planner

Search our weather history database for the weather conditions in past years. The results will help you decide how hot, cold, wet, or windy it might be!

Date:

Astronomy

Jul. 22, 2014 Rise Set
Actual Time 5:54 AM MDT 8:45 PM MDT
Civil Twilight 5:21 AM MDT 9:18 PM MDT
Nautical Twilight 4:38 AM MDT 10:00 PM MDT
Astronomical Twilight 3:49 AM MDT 10:49 PM MDT
Moon 2:31 AM MDT (7/22) 5:25 PM MDT (7/22)
Length of Visible Light 15h 57m
Length of Day
14h 51m
Waning Crescent, 16% of the Moon is Illuminated
Jul 22
Waning Crescent
Jul 26
New
Aug 3
First Quarter
Aug 10
Full
Aug 17
Last Quarter

Hourly Weather History & Observations

Time (MDT) Temp. Dew Point Humidity Pressure Visibility Wind Dir Wind Speed Gust Speed Precip Events Conditions
12:53 AM 66.0 °F 39.0 °F 37% 30.04 in 10.0 mi Variable 4.6 mph - N/A   Clear
1:53 AM 62.1 °F 39.0 °F 43% 30.04 in 10.0 mi NE 5.8 mph - N/A   Clear
2:53 AM 60.1 °F 39.9 °F 47% 30.06 in 10.0 mi North 4.6 mph - N/A   Clear
3:53 AM 60.1 °F 39.9 °F 47% 30.07 in 10.0 mi Calm Calm - N/A   Clear
4:53 AM 55.9 °F 39.0 °F 53% 30.08 in 10.0 mi NW 4.6 mph - N/A   Clear
5:53 AM 57.0 °F 42.1 °F 57% 30.09 in 10.0 mi NW 10.4 mph - N/A   Clear
6:53 AM 59.0 °F 44.1 °F 58% 30.10 in 10.0 mi NNW 6.9 mph - N/A   Clear
7:53 AM 64.4 °F 44.6 °F 49% 30.31 in 10.0 mi Variable 3.5 mph - N/A   Clear
8:53 AM 66.9 °F 46.9 °F 49% 30.14 in 10.0 mi Calm Calm - N/A   Clear
9:53 AM 71.1 °F 46.9 °F 42% 30.14 in 10.0 mi SSE 4.6 mph - N/A   Clear
10:53 AM 75.2 °F 44.6 °F 34% 30.32 in 10.0 mi Calm Calm - N/A   Clear
11:53 AM 79.0 °F 43.0 °F 28% 30.11 in 10.0 mi Variable 5.8 mph - N/A   Clear
12:53 PM 84.9 °F 41.0 °F 21% 30.08 in 10.0 mi Variable 3.5 mph - N/A   Clear
1:53 PM 87.1 °F 42.1 °F 21% 30.07 in 10.0 mi Variable 4.6 mph - N/A   Clear
2:53 PM 91.0 °F 33.1 °F 13% 30.06 in 10.0 mi Variable 5.8 mph - N/A   Clear
3:53 PM 91.0 °F 37.9 °F 15% 30.04 in 10.0 mi Calm Calm - N/A   Clear
4:53 PM 93.0 °F 37.0 °F 14% 30.03 in 10.0 mi ENE 17.3 mph 23.0 mph N/A   Partly Cloudy
5:53 PM 93.0 °F 34.0 °F 12% 30.02 in 10.0 mi Variable 6.9 mph - N/A   Clear
6:53 PM 91.0 °F 34.0 °F 13% 30.02 in 10.0 mi Calm Calm - N/A   Clear
7:53 PM 87.8 °F 39.2 °F 18% 30.24 in 10.0 mi ENE 6.9 mph - N/A   Clear
8:53 PM 82.0 °F 37.0 °F 20% 30.02 in 10.0 mi ENE 4.6 mph - N/A   Clear
9:53 PM 81.0 °F 34.0 °F 18% 30.03 in 10.0 mi ENE 4.6 mph - N/A   Clear
10:53 PM 80.1 °F 34.0 °F 19% 30.03 in 10.0 mi ESE 3.5 mph - N/A   Clear
11:53 PM 72.0 °F 34.0 °F 25% 30.04 in 10.0 mi NNE 5.8 mph - N/A   Clear